Regional Weather Roundup
Issued by NWS

Home | Current Version | Previous Version | Graphics & Text | Print | Product List | Glossary On
Versions: 1 2 3 4 5 6 7 8 9 10 11 12 13 14 15 16 17 18 19 20 21 22 23 24 25 26 27 28 29 30 31 32 33 34 35 36 37 38 39 40 41 42 43 44 45 46 47 48 49 50
000
ASUS43 KFSD 261010
RWRSD

WEATHER ROUNDUP FOR SOUTH DAKOTA
NATIONAL WEATHER SERVICE SIOUX FALLS SD
500 AM CDT THU APR 26 2018

NOTE: "FAIR" INDICATES FEW OR NO CLOUDS BELOW 12,000 FEET WITH NO
SIGNIFICANT WEATHER AND/OR OBSTRUCTIONS TO VISIBILITY.


SDZ001>005-009-010-012>017-261100-
NORTHWEST AND NORTH CENTRAL SOUTH DAKOTA

CITY           SKY/WX    TMP DP  RH WIND       PRES   REMARKS
BUFFALO          N/A     39  31  72 NW10      30.07R
FAITH            N/A     43  35  73 N16       30.06R
MOBRIDGE       CLEAR     45  33  63 N14       29.97R
$$

SDZ012>016-024>037-041>051-057-063-072>074-261100-
SOUTHWEST AND SOUTH CENTRAL SOUTH DAKOTA

CITY           SKY/WX    TMP DP  RH WIND       PRES   REMARKS
RAPID CTY ARPT PTCLDY    45  31  58 NW18      30.11R
PIERRE         CLOUDY    47  35  63 N25G37    29.92R
CUSTER         PTCLDY    39  25  57 N7        30.13R
ELLSWORTH AFB  PTCLDY    46  32  58 NW17      30.10R
PHILIP         PTCLDY    48  36  63 N24G32    30.01R
PINE RIDGE     PTCLDY    49  33  54 N14G25    30.07R
SPEARFISH      CLOUDY    45  32  61 NW9       30.16R
WINNER         FAIR      51  32  48 NW9       29.89R
$$

SDZ004>011-016>023-039-040-261100-
NORTHEAST SOUTH DAKOTA

CITY           SKY/WX    TMP DP  RH WIND       PRES   REMARKS
ABERDEEN       PTCLDY    46  34  62 N22G29    29.90R
WATERTOWN      CLOUDY    37  32  82 S5        29.82R
BROOKINGS      CLOUDY    44  32  62 S10       29.83F
SISSETON         N/A     49  35  58 NW25      29.81R
$$

SDZ017-020-022-023-036>040-048>070-261100-
SOUTHEAST SOUTH DAKOTA

CITY           SKY/WX    TMP DP  RH WIND       PRES   REMARKS
SIOUX FALLS    CLOUDY    44  31  60 SW6       29.87F
HURON          CLOUDY    44  35  70 S6        29.83R
CHAMBERLAIN    MOCLDY    50  35  55 NW15G21   29.87R
MITCHELL       CLOUDY    46  34  62 S8        29.85S
YANKTON        CLOUDY    46  33  60 S10       29.89F
$$

ABBREVIATIONS USED IN REMARKS
   TC - TEMPERATURE IN CELSIUS
  WCI - WIND CHILL INDEX
   HX - HEAT INDEX
  VSB - VISIBILITY





USA.gov is the U.S. government's official web portal to all federal, state and local government web resources and services.